Location: Karcze
(52.0945°N, 22.4786°E)
Time: 23:41:09
(UTC+00:00)

Transit 4A - Pass Details

Date: 03 August 2021
Orbit: 871 x 974 km, 66.8° (Epoch: 18 September)

Event Time Altitude Azimuth Distance (km) Brightness Sun altitude
Exits shadow 00:39:22 - 267° (W) 3,221 10.4 -15.5°
Reaches altitude 10° 00:41:31 10° 277° (W) 2,529 9.9 -15.3°
Maximum altitude 00:46:25 27° 335° (NNW) 1,618 9.5 -14.9°
Drops below altitude 10° 00:51:20 10° 32° (NNE) 2,532 11.6 -14.5°
Sets 00:54:14 0° 45° (NE) 3,479 12.7 -14.2°
